DNO456 OLBA-LGMK

Flight info

Callsign DNO456
Flight time 1h 38m
Altitude 34000
Route KUKLA M31 LCA M601 EVENO UM601 ASTIS UN137 PEROK
Aircraft A320/M-SDE3FGHIRWY/LB1

Departure

Time 2026-04-27 11:12
Airport Beirut Rafic Hariri International Airport (OLBA)

Arrival

Time 2026-04-27 12:50
Airport Mykonos Island National Airport (LGMK)
Time Latitude Longitude Altitude Speed Heading
2026-04-27 10:56 33.82354 35.49333 61 ft 0 kts 109°
2026-04-27 11:04 33.82354 35.49332 44 ft 2 kts 109°
2026-04-27 11:05 33.82360 35.49313 44 ft 2 kts 109°
2026-04-27 11:05 33.82365 35.49293 41 ft 3 kts 114°
2026-04-27 11:05 33.82375 35.49276 43 ft 3 kts 150°
2026-04-27 11:05 33.82392 35.49269 48 ft 3 kts 186°
2026-04-27 11:06 33.82397 35.49270 46 ft 0 kts 194°
2026-04-27 11:08 33.82391 35.49268 49 ft 5 kts 194°
2026-04-27 11:08 33.82336 35.49254 52 ft 9 kts 195°
2026-04-27 11:08 33.82268 35.49231 50 ft 11 kts 195°
2026-04-27 11:08 33.82219 35.49168 50 ft 11 kts 271°
2026-04-27 11:09 33.82238 35.49079 51 ft 11 kts 285°
2026-04-27 11:09 33.82202 35.49030 54 ft 9 kts 179°
2026-04-27 11:09 33.82129 35.49034 48 ft 12 kts 177°
2026-04-27 11:09 33.82040 35.49039 55 ft 14 kts 178°
2026-04-27 11:10 33.81936 35.49045 54 ft 16 kts 177°
2026-04-27 11:10 33.81816 35.49053 46 ft 18 kts 174°
2026-04-27 11:10 33.81683 35.49065 51 ft 20 kts 178°
2026-04-27 11:10 33.81538 35.49059 43 ft 21 kts 212°
2026-04-27 11:11 33.81438 35.48973 48 ft 19 kts 214°
2026-04-27 11:11 33.81378 35.48867 46 ft 14 kts 313°
2026-04-27 11:11 33.81460 35.48850 48 ft 16 kts 357°
2026-04-27 11:11 33.81752 35.48831 54 ft 71 kts 356°
2026-04-27 11:12 33.82428 35.48790 64 ft 121 kts 357°
2026-04-27 11:12 33.83423 35.48720 106 ft 166 kts 356°
2026-04-27 11:12 33.84614 35.48585 757 ft 176 kts 350°
2026-04-27 11:12 33.85805 35.48116 1691 ft 184 kts 331°
2026-04-27 11:13 33.86745 35.47102 2489 ft 183 kts 307°
2026-04-27 11:13 33.87501 35.45874 3084 ft 183 kts 308°
2026-04-27 11:13 33.88270 35.44607 3495 ft 194 kts 303°
2026-04-27 11:13 33.89025 35.43186 3798 ft 210 kts 302°
2026-04-27 11:14 33.89830 35.41622 4093 ft 229 kts 301°
2026-04-27 11:14 33.90688 35.39947 4609 ft 239 kts 301°
2026-04-27 11:14 33.91573 35.38226 5251 ft 244 kts 300°
2026-04-27 11:14 33.92475 35.36476 5912 ft 248 kts 300°
2026-04-27 11:15 33.93395 35.34699 6594 ft 251 kts 300°
2026-04-27 11:15 33.94326 35.32906 7270 ft 253 kts 300°
2026-04-27 11:15 33.95264 35.31104 7960 ft 255 kts 300°
2026-04-27 11:15 33.96208 35.29287 8649 ft 257 kts 299°
2026-04-27 11:16 33.97161 35.27452 9341 ft 259 kts 299°
2026-04-27 11:16 33.98121 35.25604 10012 ft 262 kts 298°
2026-04-27 11:16 33.99087 35.23736 10630 ft 263 kts 298°
2026-04-27 11:16 34.00058 35.21859 11272 ft 264 kts 298°
2026-04-27 11:17 34.01035 35.19975 11906 ft 266 kts 297°
2026-04-27 11:17 34.02016 35.18085 12525 ft 267 kts 297°
2026-04-27 11:17 34.03005 35.16180 13148 ft 269 kts 296°
2026-04-27 11:17 34.03997 35.14265 13764 ft 270 kts 296°
2026-04-27 11:18 34.04994 35.12340 14310 ft 272 kts 296°
2026-04-27 11:18 34.05995 35.10400 14846 ft 273 kts 296°
2026-04-27 11:18 34.07001 35.08448 15372 ft 275 kts 296°
2026-04-27 11:18 34.08016 35.06482 15904 ft 277 kts 296°
2026-04-27 11:19 34.09040 35.04503 16423 ft 279 kts 296°
2026-04-27 11:19 34.10066 35.02512 16938 ft 281 kts 296°
2026-04-27 11:19 34.11101 35.00504 17448 ft 283 kts 297°
2026-04-27 11:19 34.12143 34.98484 17956 ft 285 kts 297°
2026-04-27 11:20 34.13195 34.96446 18431 ft 287 kts 297°
2026-04-27 11:20 34.14253 34.94395 18846 ft 289 kts 297°
2026-04-27 11:20 34.15306 34.92352 19266 ft 292 kts 297°
2026-04-27 11:20 34.16381 34.90266 19686 ft 294 kts 297°
2026-04-27 11:21 34.17466 34.88157 20102 ft 297 kts 297°
2026-04-27 11:21 34.18558 34.86031 20497 ft 299 kts 297°
2026-04-27 11:21 34.19661 34.83883 20892 ft 302 kts 298°
2026-04-27 11:21 34.20772 34.81718 21267 ft 305 kts 298°
2026-04-27 11:22 34.21895 34.79525 21638 ft 308 kts 298°
2026-04-27 11:22 34.23026 34.77318 22001 ft 310 kts 298°
2026-04-27 11:22 34.24165 34.75091 22368 ft 313 kts 298°
2026-04-27 11:22 34.25342 34.72856 22728 ft 316 kts 300°
2026-04-27 11:23 34.26572 34.70639 23079 ft 319 kts 301°
2026-04-27 11:23 34.27834 34.68418 23429 ft 322 kts 302°
2026-04-27 11:23 34.29114 34.66183 23734 ft 325 kts 302°
2026-04-27 11:23 34.30406 34.63924 24032 ft 327 kts 302°
2026-04-27 11:24 34.31698 34.61652 24337 ft 329 kts 302°
2026-04-27 11:24 34.32992 34.59362 24637 ft 330 kts 302°
2026-04-27 11:24 34.34285 34.57061 24937 ft 332 kts 302°
2026-04-27 11:24 34.35587 34.54737 25232 ft 334 kts 302°
2026-04-27 11:25 34.36875 34.52435 25521 ft 336 kts 302°
2026-04-27 11:25 34.38187 34.50086 25815 ft 337 kts 302°
2026-04-27 11:25 34.39505 34.47725 26113 ft 339 kts 302°
2026-04-27 11:25 34.40826 34.45357 26403 ft 341 kts 302°
2026-04-27 11:26 34.42159 34.42969 26692 ft 342 kts 302°
2026-04-27 11:26 34.43495 34.40574 26981 ft 344 kts 302°
2026-04-27 11:26 34.44839 34.38168 27260 ft 345 kts 302°
2026-04-27 11:26 34.46194 34.35758 27543 ft 347 kts 302°
2026-04-27 11:27 34.47566 34.33339 27825 ft 348 kts 303°
2026-04-27 11:27 34.48943 34.30917 28108 ft 350 kts 303°
2026-04-27 11:27 34.50323 34.28483 28391 ft 351 kts 303°
2026-04-27 11:27 34.51710 34.26033 28675 ft 353 kts 303°
2026-04-27 11:28 34.53104 34.23569 28962 ft 354 kts 303°
2026-04-27 11:28 34.54500 34.21103 29242 ft 356 kts 303°
2026-04-27 11:28 34.55905 34.18618 29537 ft 357 kts 303°
2026-04-27 11:28 34.57316 34.16125 29839 ft 359 kts 304°
2026-04-27 11:29 34.58733 34.13621 30114 ft 360 kts 304°
2026-04-27 11:29 34.60152 34.11108 30365 ft 361 kts 304°
2026-04-27 11:29 34.61570 34.08588 30622 ft 362 kts 303°
2026-04-27 11:29 34.62990 34.06060 30883 ft 363 kts 303°
2026-04-27 11:30 34.64395 34.03557 31133 ft 364 kts 303°
2026-04-27 11:30 34.65829 34.01012 31373 ft 365 kts 303°
2026-04-27 11:30 34.67269 33.98463 31610 ft 367 kts 303°
2026-04-27 11:30 34.68717 33.95901 31848 ft 368 kts 303°
2026-04-27 11:31 34.70169 33.93328 32090 ft 370 kts 303°
2026-04-27 11:31 34.71627 33.90748 32323 ft 371 kts 303°
2026-04-27 11:31 34.73089 33.88160 32553 ft 372 kts 303°
2026-04-27 11:31 34.74547 33.85555 32777 ft 373 kts 303°
2026-04-27 11:32 34.76007 33.82933 33000 ft 374 kts 303°
2026-04-27 11:32 34.77449 33.80335 33212 ft 375 kts 303°
2026-04-27 11:32 34.78928 33.77664 33425 ft 376 kts 303°
2026-04-27 11:32 34.80368 33.75057 33622 ft 377 kts 303°
2026-04-27 11:33 34.81835 33.72402 33823 ft 378 kts 303°
2026-04-27 11:33 34.83309 33.69739 33975 ft 379 kts 303°
2026-04-27 11:33 34.86241 33.64412 34008 ft 381 kts 300°
2026-04-27 11:34 34.88491 33.58492 34001 ft 392 kts 289°
2026-04-27 11:34 34.90338 33.52128 34006 ft 404 kts 289°
2026-04-27 11:35 34.92251 33.45585 33997 ft 416 kts 289°
2026-04-27 11:35 34.94203 33.38907 33998 ft 419 kts 289°
2026-04-27 11:36 34.96146 33.32215 33984 ft 419 kts 289°
2026-04-27 11:36 34.98089 33.25520 33987 ft 419 kts 289°
2026-04-27 11:37 35.00014 33.18868 33989 ft 419 kts 289°
2026-04-27 11:37 35.01940 33.12162 33994 ft 419 kts 289°
2026-04-27 11:38 35.03865 33.05459 34003 ft 418 kts 289°
2026-04-27 11:38 35.05796 32.98758 33999 ft 418 kts 289°
2026-04-27 11:39 35.07394 32.93188 34003 ft 418 kts 289°
2026-04-27 11:39 35.09246 32.86467 34005 ft 418 kts 288°
2026-04-27 11:40 35.11033 32.79723 34008 ft 417 kts 288°
2026-04-27 11:40 35.12809 32.72970 34001 ft 417 kts 288°
2026-04-27 11:41 35.14599 32.66222 34007 ft 417 kts 289°
2026-04-27 11:41 35.16400 32.59493 34003 ft 416 kts 289°
2026-04-27 11:42 35.18191 32.52762 33998 ft 416 kts 289°
2026-04-27 11:42 35.19966 32.46076 33996 ft 416 kts 289°
2026-04-27 11:43 35.21743 32.39338 33994 ft 415 kts 288°
2026-04-27 11:43 35.23511 32.32620 33989 ft 415 kts 289°
2026-04-27 11:44 35.25286 32.25902 33991 ft 415 kts 289°
2026-04-27 11:44 35.27049 32.19169 33980 ft 414 kts 288°
2026-04-27 11:45 35.28790 32.12487 33980 ft 414 kts 288°
2026-04-27 11:45 35.30540 32.05759 33989 ft 414 kts 289°
2026-04-27 11:46 35.32308 31.99049 33988 ft 414 kts 289°
2026-04-27 11:46 35.34079 31.92339 33985 ft 414 kts 289°
2026-04-27 11:47 35.35844 31.85621 33986 ft 414 kts 288°
2026-04-27 11:47 35.37596 31.78897 33985 ft 414 kts 289°
2026-04-27 11:48 35.39350 31.72182 33986 ft 414 kts 289°
2026-04-27 11:48 35.41096 31.65473 33975 ft 413 kts 288°
2026-04-27 11:49 35.42841 31.58739 33983 ft 413 kts 288°
2026-04-27 11:49 35.44576 31.52024 33981 ft 413 kts 288°
2026-04-27 11:50 35.46304 31.45313 33987 ft 413 kts 288°
2026-04-27 11:50 35.48036 31.38600 33985 ft 413 kts 288°
2026-04-27 11:51 35.49751 31.31923 33983 ft 412 kts 288°
2026-04-27 11:52 35.52325 31.21853 33984 ft 412 kts 288°
2026-04-27 11:52 35.54039 31.15147 33988 ft 412 kts 288°
2026-04-27 11:53 35.55743 31.08462 33987 ft 412 kts 288°
2026-04-27 11:53 35.57442 31.01741 33985 ft 412 kts 288°
2026-04-27 11:54 35.59142 30.95028 33962 ft 410 kts 289°
2026-04-27 11:54 35.60823 30.88373 33987 ft 407 kts 288°
2026-04-27 11:55 35.62510 30.81723 33990 ft 407 kts 289°
2026-04-27 11:55 35.64225 30.75085 33990 ft 407 kts 289°
2026-04-27 11:56 35.65947 30.68449 33988 ft 408 kts 289°
2026-04-27 11:56 35.67660 30.61800 33986 ft 408 kts 288°
2026-04-27 11:57 35.69363 30.55146 33987 ft 408 kts 288°
2026-04-27 11:57 35.71065 30.48485 33985 ft 408 kts 288°
2026-04-27 11:58 35.72764 30.41818 33984 ft 408 kts 288°
2026-04-27 11:58 35.74461 30.35144 33986 ft 409 kts 288°
2026-04-27 11:59 35.76150 30.28518 33989 ft 409 kts 288°
2026-04-27 11:59 35.77850 30.21826 33988 ft 409 kts 288°
2026-04-27 12:00 35.79538 30.15137 33986 ft 409 kts 288°
2026-04-27 12:00 35.81218 30.08453 33985 ft 409 kts 288°
2026-04-27 12:01 35.82892 30.01755 33985 ft 409 kts 288°
2026-04-27 12:01 35.84614 29.95085 33990 ft 409 kts 289°
2026-04-27 12:02 35.86444 29.88452 33988 ft 409 kts 289°
2026-04-27 12:02 35.88278 29.81802 33989 ft 409 kts 289°
2026-04-27 12:03 35.90085 29.75160 33990 ft 408 kts 289°
2026-04-27 12:03 35.91877 29.68505 33994 ft 408 kts 288°
2026-04-27 12:04 35.93649 29.61895 33990 ft 409 kts 288°
2026-04-27 12:04 35.95436 29.55228 33996 ft 409 kts 288°
2026-04-27 12:05 35.97234 29.48558 33997 ft 410 kts 289°
2026-04-27 12:05 35.99035 29.41882 33996 ft 410 kts 288°
2026-04-27 12:06 36.00828 29.35198 33992 ft 410 kts 288°
2026-04-27 12:06 36.02613 29.28502 33992 ft 411 kts 288°
2026-04-27 12:07 36.04408 29.21793 33992 ft 411 kts 288°
2026-04-27 12:07 36.06200 29.15077 33990 ft 411 kts 288°
2026-04-27 12:08 36.07986 29.08358 33989 ft 412 kts 288°
2026-04-27 12:08 36.09766 29.01617 33991 ft 412 kts 288°
2026-04-27 12:09 36.11544 28.94879 33995 ft 413 kts 288°
2026-04-27 12:09 36.13324 28.88123 33987 ft 413 kts 288°
2026-04-27 12:10 36.15101 28.81373 33989 ft 413 kts 288°
2026-04-27 12:10 36.16877 28.74603 33982 ft 413 kts 288°
2026-04-27 12:11 36.18644 28.67828 33985 ft 414 kts 288°
2026-04-27 12:11 36.20403 28.61097 33983 ft 414 kts 288°
2026-04-27 12:12 36.22168 28.54306 33981 ft 414 kts 288°
2026-04-27 12:12 36.23925 28.47516 33981 ft 414 kts 288°
2026-04-27 12:13 36.25674 28.40715 33984 ft 414 kts 288°
2026-04-27 12:13 36.27397 28.34022 33988 ft 414 kts 288°
2026-04-27 12:14 36.29150 28.27220 33993 ft 414 kts 288°
2026-04-27 12:14 36.30880 28.20448 34003 ft 414 kts 288°
2026-04-27 12:15 36.32613 28.13623 34002 ft 415 kts 288°
2026-04-27 12:15 36.34184 28.06738 34001 ft 415 kts 279°
2026-04-27 12:16 36.35081 27.99671 34002 ft 415 kts 279°
2026-04-27 12:16 36.36008 27.92597 34004 ft 415 kts 279°
2026-04-27 12:17 36.36931 27.85521 34004 ft 415 kts 279°
2026-04-27 12:17 36.37834 27.78436 34003 ft 415 kts 279°
2026-04-27 12:18 36.38733 27.71353 34007 ft 415 kts 279°
2026-04-27 12:18 36.39623 27.64310 34010 ft 416 kts 279°
2026-04-27 12:19 36.40515 27.57225 34010 ft 416 kts 279°
2026-04-27 12:19 36.41401 27.50137 34008 ft 416 kts 279°
2026-04-27 12:20 36.42281 27.43046 34013 ft 416 kts 279°
2026-04-27 12:20 36.43160 27.35957 34016 ft 415 kts 279°
2026-04-27 12:21 36.44033 27.28862 34019 ft 416 kts 279°
2026-04-27 12:21 36.44898 27.21769 34021 ft 415 kts 279°
2026-04-27 12:22 36.45761 27.14688 34023 ft 415 kts 279°
2026-04-27 12:22 36.46616 27.07600 34030 ft 415 kts 279°
2026-04-27 12:23 36.47469 27.00516 34032 ft 414 kts 279°
2026-04-27 12:23 36.48332 26.93438 34032 ft 414 kts 279°
2026-04-27 12:24 36.49194 26.86403 34034 ft 414 kts 279°
2026-04-27 12:24 36.50040 26.79316 34037 ft 414 kts 279°
2026-04-27 12:25 36.50877 26.72232 34004 ft 414 kts 279°
2026-04-27 12:25 36.51289 26.68716 33818 ft 407 kts 279°
2026-04-27 12:25 36.51560 26.66385 33725 ft 399 kts 279°
2026-04-27 12:25 36.52074 26.61958 33547 ft 383 kts 279°
2026-04-27 12:26 36.52326 26.59773 33458 ft 375 kts 279°
2026-04-27 12:26 36.52690 26.56606 33323 ft 365 kts 279°
2026-04-27 12:26 36.53049 26.53507 33041 ft 359 kts 279°
2026-04-27 12:26 36.53407 26.50453 32685 ft 356 kts 279°
2026-04-27 12:27 36.53764 26.47423 32325 ft 353 kts 279°
2026-04-27 12:27 36.54115 26.44417 31966 ft 350 kts 279°
2026-04-27 12:27 36.54459 26.41436 31603 ft 347 kts 279°
2026-04-27 12:27 36.54799 26.38476 31237 ft 345 kts 279°
2026-04-27 12:28 36.55132 26.35573 30874 ft 342 kts 279°
2026-04-27 12:28 36.55467 26.32656 30515 ft 340 kts 278°
2026-04-27 12:28 36.55799 26.29759 30153 ft 337 kts 279°
2026-04-27 12:28 36.56295 26.26927 29743 ft 334 kts 288°
2026-04-27 12:29 36.57124 26.24241 29321 ft 331 kts 296°
2026-04-27 12:29 36.58255 26.21763 28899 ft 328 kts 304°
2026-04-27 12:29 36.59659 26.19537 28489 ft 326 kts 312°
2026-04-27 12:29 36.61264 26.17557 28078 ft 324 kts 315°
2026-04-27 12:30 36.62879 26.15616 27678 ft 321 kts 315°
2026-04-27 12:30 36.64476 26.13686 27293 ft 319 kts 314°
2026-04-27 12:30 36.66059 26.11766 26911 ft 316 kts 314°
2026-04-27 12:30 36.67625 26.09866 26535 ft 313 kts 315°
2026-04-27 12:31 36.69182 26.07979 26172 ft 311 kts 315°
2026-04-27 12:31 36.70725 26.06108 25815 ft 308 kts 315°
2026-04-27 12:31 36.72255 26.04253 25460 ft 306 kts 315°
2026-04-27 12:31 36.73771 26.02411 25111 ft 304 kts 315°
2026-04-27 12:32 36.75280 26.00578 24757 ft 302 kts 315°
2026-04-27 12:32 36.76778 25.98754 24418 ft 299 kts 315°
2026-04-27 12:32 36.78265 25.96946 24088 ft 297 kts 315°
2026-04-27 12:32 36.79741 25.95152 23756 ft 295 kts 315°
2026-04-27 12:33 36.81207 25.93368 23396 ft 293 kts 315°
2026-04-27 12:33 36.82661 25.91596 23014 ft 291 kts 315°
2026-04-27 12:33 36.84105 25.89834 22632 ft 290 kts 315°
2026-04-27 12:33 36.85544 25.88077 22282 ft 288 kts 315°
2026-04-27 12:34 36.86969 25.86334 21945 ft 286 kts 315°
2026-04-27 12:34 36.88386 25.84600 21593 ft 284 kts 315°
2026-04-27 12:34 36.89793 25.82878 21230 ft 283 kts 315°
2026-04-27 12:34 36.91212 25.81187 20883 ft 281 kts 317°
2026-04-27 12:35 36.92677 25.79572 20539 ft 280 kts 319°
2026-04-27 12:35 36.94156 25.78003 20201 ft 278 kts 319°
2026-04-27 12:35 36.95635 25.76450 19822 ft 279 kts 319°
2026-04-27 12:35 36.97136 25.74874 19286 ft 285 kts 319°
2026-04-27 12:36 36.98669 25.73252 18769 ft 291 kts 319°
2026-04-27 12:36 37.00226 25.71591 18239 ft 297 kts 319°
2026-04-27 12:36 37.01807 25.69897 17651 ft 302 kts 319°
2026-04-27 12:36 37.03394 25.68193 17079 ft 307 kts 319°
2026-04-27 12:37 37.05007 25.66461 16508 ft 303 kts 319°
2026-04-27 12:37 37.06590 25.64757 15956 ft 298 kts 319°
2026-04-27 12:37 37.08151 25.63073 15362 ft 295 kts 319°
2026-04-27 12:37 37.09697 25.61403 14764 ft 292 kts 319°
2026-04-27 12:38 37.11235 25.59743 14156 ft 292 kts 319°
2026-04-27 12:38 37.12774 25.58086 13506 ft 292 kts 320°
2026-04-27 12:38 37.14319 25.56423 12829 ft 293 kts 320°
2026-04-27 12:38 37.15861 25.54760 12165 ft 293 kts 320°
2026-04-27 12:39 37.17407 25.53093 11515 ft 293 kts 320°
2026-04-27 12:39 37.18950 25.51429 10874 ft 293 kts 321°
2026-04-27 12:39 37.20484 25.49770 10393 ft 289 kts 321°
2026-04-27 12:39 37.21984 25.48141 9957 ft 281 kts 321°
2026-04-27 12:40 37.23446 25.46549 9490 ft 275 kts 321°
2026-04-27 12:40 37.24874 25.44996 9027 ft 269 kts 322°
2026-04-27 12:40 37.26275 25.43476 8570 ft 264 kts 322°
2026-04-27 12:40 37.27635 25.42000 8121 ft 259 kts 323°
2026-04-27 12:41 37.29136 25.40819 7669 ft 246 kts 346°
2026-04-27 12:41 37.30782 25.40573 7238 ft 235 kts
2026-04-27 12:41 37.32287 25.41176 6808 ft 228 kts 32°
2026-04-27 12:41 37.33473 25.42489 6358 ft 225 kts 53°
2026-04-27 12:42 37.34129 25.44254 5910 ft 225 kts 75°
2026-04-27 12:42 37.34180 25.46210 5457 ft 227 kts 97°
2026-04-27 12:42 37.33600 25.48062 5009 ft 231 kts 120°
2026-04-27 12:42 37.32519 25.49529 4569 ft 233 kts 133°
2026-04-27 12:43 37.31305 25.50865 4127 ft 231 kts 135°
2026-04-27 12:43 37.30078 25.52158 3671 ft 229 kts 135°
2026-04-27 12:43 37.28860 25.53435 3222 ft 228 kts 135°
2026-04-27 12:43 37.27483 25.54428 2770 ft 232 kts 162°
2026-04-27 12:44 37.25878 25.54500 2317 ft 233 kts 195°
2026-04-27 12:44 37.24475 25.53569 2083 ft 223 kts 227°
2026-04-27 12:44 37.23639 25.52080 2074 ft 198 kts 255°
2026-04-27 12:44 37.23398 25.50429 2121 ft 189 kts 278°
2026-04-27 12:45 37.23690 25.48865 2102 ft 182 kts 301°
2026-04-27 12:45 37.24422 25.47612 2089 ft 176 kts 323°
2026-04-27 12:45 37.25407 25.46733 2081 ft 173 kts 331°
2026-04-27 12:45 37.26408 25.45895 2081 ft 173 kts 331°
2026-04-27 12:46 37.27410 25.45049 2080 ft 173 kts 330°
2026-04-27 12:46 37.28409 25.44201 2083 ft 173 kts 330°
2026-04-27 12:46 37.29409 25.43350 2085 ft 174 kts 330°
2026-04-27 12:46 37.30410 25.42499 2087 ft 174 kts 330°
2026-04-27 12:47 37.31411 25.41649 2088 ft 173 kts 330°
2026-04-27 12:47 37.32408 25.40800 2085 ft 173 kts 330°
2026-04-27 12:47 37.33424 25.39936 2079 ft 173 kts 330°
2026-04-27 12:47 37.34365 25.39129 2092 ft 149 kts 330°
2026-04-27 12:48 37.35177 25.38490 2115 ft 131 kts 338°
2026-04-27 12:48 37.36006 25.38049 2016 ft 128 kts 343°
2026-04-27 12:48 37.36847 25.37676 1953 ft 128 kts 345°
2026-04-27 12:48 37.37686 25.37308 1709 ft 126 kts 345°
2026-04-27 12:49 37.38514 25.36966 1482 ft 125 kts 346°
2026-04-27 12:49 37.39339 25.36638 1269 ft 124 kts 345°
2026-04-27 12:49 37.40158 25.36310 1088 ft 124 kts 344°
2026-04-27 12:49 37.40970 25.35950 865 ft 125 kts 342°
2026-04-27 12:50 37.41795 25.35586 671 ft 124 kts 342°
2026-04-27 12:50 37.42599 25.35229 466 ft 121 kts 342°
2026-04-27 12:50 37.43373 25.34877 416 ft 108 kts 344°
2026-04-27 12:50 37.43935 25.34636 411 ft 48 kts 341°
2026-04-27 12:51 37.44130 25.34549 404 ft 27 kts 341°
2026-04-27 12:51 37.44267 25.34510 406 ft 15 kts
2026-04-27 12:51 37.44276 25.34469 405 ft 9 kts 153°
2026-04-27 12:51 37.44218 25.34509 406 ft 10 kts 156°
2026-04-27 12:52 37.44139 25.34545 406 ft 15 kts 160°
2026-04-27 12:52 37.44023 25.34596 410 ft 21 kts 161°
2026-04-27 12:52 37.43882 25.34659 412 ft 22 kts 160°
2026-04-27 12:52 37.43738 25.34723 408 ft 21 kts 161°
2026-04-27 12:53 37.43540 25.34694 408 ft 12 kts 169°
2026-04-27 12:53 37.43509 25.34654 406 ft 5 kts 259°
2026-04-27 12:53 37.43505 25.34640 407 ft 0 kts 251°